Tracking 28125 objects as of 2-Oct-2023
HD Live streaming from Space Station
objects crossing your sky now

STARLINK-2706

Track STARLINK-2706 now!
10-day predictions
STARLINK-2706 is classified as:


NORAD ID: 48481
Int'l Code: 2021-040BF
Perigee: 553.1 km
Apogee: 555.5 km
Inclination: 53.1 °
Period: 95.6 minutes
Semi major axis: 6925 km
RCS: Unknown
Launch date: May 9, 2021
Source: United States (US)
Launch site: AIR FORCE EASTERN TEST RANGE (AFETR)
Your satellite tracking list
Your tracking list is empty




NASA's NSSDC Master Catalog

Two Line Element Set (TLE):
1 48481U 21040BF  23274.61378050  .00016996  00000-0  11570-2 0  9997
2 48481  53.0528 237.6048 0001728 109.4699 250.6477 15.06405140132188
Source of the keplerian elements: AFSPC